Wind_Speed
28 29 30 30 32 32 33 34 34 34 34 35 37 37 37 38 37 38 39 38 38 38 37 38 39 40 40 37 37 38 38 38 38 38 38 37 36 37 37 35 28 18 13 14 19 21 22 26 31 33 34 35 37 38 37 37 37 36 35 34 33 31 30
28 29 30 31 32 33 34 35 35 35 35 36 37 37 38 38 38 39 39 38 38 38 38 38 40 40 39 37 38 39 38 38 37 37 38 38 37 38 38 36 33 25 17 15 17 21 22 23 27 32 33 35 38 38 38 38 38 37 37 36 35 33 32
27 28 29 31 32 33 34 34 35 35 36 37 37 38 38 39 39 40 40 40 40 39 38 39 40 41 39 36 37 40 38 37 37 37 38 39 39 39 38 37 37 31 24 19 18 21 25 25 27 31 32 34 37 37 38 39 40 39 38 37 36 35 33
24 26 28 29 31 32 33 34 35 35 36 37 38 38 39 39 40 41 41 41 41 40 39 39 40 41 39 36 38 39 38 36 36 37 38 39 38 38 37 36 37 37 32 24 19 21 26 28 29 31 32 33 35 37 38 40 39 38 38 38 36 36 35
20 23 26 28 30 31 33 34 35 36 37 37 37 38 39 39 40 41 41 42 42 41 40 40 42 42 39 37 39 39 37 37 37 37 37 38 37 37 37 35 35 38 36 30 25 22 23 27 29 29 31 34 36 36 37 37 37 37 37 37 37 36 35
18 20 23 25 28 30 32 33 35 36 37 37 37 38 39 39 40 40 41 41 41 41 41 42 43 42 40 39 40 41 39 37 38 38 38 39 38 36 35 34 35 35 34 34 32 26 22 25 28 28 29 33 36 36 36 35 35 35 36 36 36 37 37
18 19 20 23 25 27 29 31 33 35 36 36 37 37 38 39 40 40 41 42 42 42 42 43 43 43 41 41 42 43 41 39 38 38 39 40 38 36 34 34 34 33 32 32 31 28 24 24 27 29 29 31 34 34 34 34 31 30 33 35 36 38 38
20 20 20 21 22 24 26 28 30 32 33 35 36 36 38 39 39 40 41 42 43 43 43 44 44 44 43 43 44 44 43 41 40 38 39 40 38 36 35 34 32 30 30 30 28 27 26 24 24 27 27 26 28 29 29 30 29 29 30 33 36 38 38
19 20 21 22 22 23 24 25 27 28 30 33 34 35 37 38 39 40 41 42 42 43 43 44 44 44 44 44 45 45 44 44 42 41 40 39 37 36 35 33 31 29 28 27 25 25 24 21 22 26 26 28 31 30 28 28 29 30 28 27 31 34 34
19 20 22 23 24 25 25 25 25 26 27 29 31 34 35 37 38 39 40 41 41 41 42 42 43 44 44 44 45 45 45 44 44 44 44 41 38 38 37 34 31 30 29 26 24 25 23 19 21 26 29 33 34 32 28 27 28 28 26 23 23 26 30
21 21 22 23 25 26 26 26 25 25 26 26 28 30 33 35 37 38 39 40 40 41 41 40 41 42 42 43 44 44 44 44 45 45 45 44 41 40 40 39 35 32 30 28 26 25 24 23 24 27 29 32 31 28 28 28 28 27 24 21 17 16 20
22 22 23 23 25 25 25 25 25 25 25 24 24 26 29 33 35 37 38 38 39 40 40 38 38 39 40 41 42 42 42 43 44 44 45 45 43 42 43 43 42 38 34 32 29 26 27 28 27 26 28 31 30 28 29 29 28 27 25 22 20 18 17
23 23 22 23 24 25 25 24 23 23 23 23 23 24 26 29 32 34 37 38 38 39 38 38 37 37 38 39 39 39 40 40 41 41 42 43 43 44 44 44 45 44 40 38 34 31 32 33 30 27 29 31 31 30 30 29 27 27 26 25 26 26 25
24 23 23 23 24 25 25 23 23 23 22 23 24 24 25 28 30 31 33 35 37 38 38 38 37 37 38 38 36 37 38 38 38 37 38 39 41 43 44 43 44 45 44 41 38 37 37 35 33 32 31 31 32 33 33 30 29 29 28 29 29 28 27
23 23 23 24 25 25 25 24 22 22 23 23 24 24 26 27 29 30 31 32 33 35 37 38 38 38 39 38 36 36 36 36 37 36 35 37 39 41 42 43 44 45 45 44 42 41 39 35 33 34 33 31 32 34 35 32 30 29 28 27 25 23 23
23 23 24 24 24 25 25 24 22 22 23 24 24 25 26 27 27 29 30 30 30 30 33 35 37 38 39 38 38 37 36 35 35 35 35 36 38 38 38 41 44 44 44 45 44 43 41 37 33 32 32 32 32 32 33 30 27 25 22 19 17 17 21
23 22 23 24 24 24 25 24 23 23 23 24 24 25 26 26 26 27 28 29 29 29 30 32 33 36 38 38 38 37 36 35 34 35 36 36 36 35 36 39 40 38 39 40 39 39 38 35 32 30 29 29 30 31 31 28 25 23 21 18 13 12 16
22 22 22 24 23 23 24 24 23 22 23 23 23 24 25 26 26 26 26 27 28 29 30 31 32 33 35 37 38 37 35 34 35 36 37 37 36 34 35 38 35 32 34 35 34 35 34 32 31 31 29 27 27 28 30 31 30 26 23 21 16 12 13
21 22 22 23 23 22 22 24 24 23 23 23 23 23 24 24 24 25 24 25 26 27 28 29 30 30 32 35 37 36 35 35 35 37 38 38 34 32 36 37 31 29 33 34 34 37 37 34 34 33 32 32 30 29 30 33 34 30 26 24 21 17 12
21 22 23 22 22 22 22 24 25 24 23 23 23 22 23 24 23 23 23 24 25 26 26 27 28 28 29 32 35 36 36 35 35 37 39 38 34 34 37 35 31 31 34 32 33 36 37 37 36 34 32 33 33 33 33 33 33 33 31 28 24 22 18
22 22 23 22 21 22 23 23 24 24 24 23 23 23 23 23 23 23 25 26 26 26 26 26 26 27 28 29 31 34 36 35 34 36 39 39 38 39 38 33 29 31 32 31 32 32 31 32 33 32 32 31 31 33 35 35 34 34 35 35 31 26 23
22 23 23 23 23 23 23 23 23 24 24 24 24 24 23 23 24 24 25 27 25 24 25 26 26 26 27 27 28 31 33 34 34 35 37 40 41 41 38 32 28 27 28 28 28 27 26 28 28 29 31 31 30 30 32 34 36 36 37 38 37 32 28
22 22 23 23 24 24 24 24 24 24 26 26 25 24 24 24 24 24 24 25 25 23 24 26 26 26 26 26 26 29 31 33 35 36 37 39 40 40 38 33 28 25 24 25 24 24 24 25 26 26 28 29 31 32 32 34 36 38 37 36 35 34 32
21 20 21 22 23 24 25 25 25 26 27 27 26 24 24 23 24 24 24 25 26 25 25 25 26 27 28 27 27 28 30 32 35 37 38 38 37 37 36 32 27 25 23 22 22 22 22 23 25 26 27 28 31 33 34 35 35 34 34 34 33 33 32
19 19 20 20 22 24 25 26 27 28 28 28 27 26 24 24 25 25 25 26 27 27 26 26 27 28 28 28 27 26 28 30 33 36 38 38 34 31 31 30 28 25 23 21 21 21 22 23 24 26 28 29 29 28 29 30 30 29 29 29 30 30 31
19 19 19 20 20 23 25 27 27 28 28 28 28 27 26 26 27 27 27 27 28 29 28 27 26 24 24 25 24 24 26 29 31 33 36 37 33 28 27 28 27 25 23 22 22 21 22 24 24 25 27 26 24 24 24 24 25 26 27 27 26 27 29
19 18 18 18 19 22 25 26 26 26 27 27 27 28 28 28 28 27 27 28 29 30 29 27 25 24 23 23 23 23 25 28 30 30 30 31 30 28 26 26 27 27 26 25 24 23 24 24 23 22 23 23 23 24 24 24 24 25 25 25 25 24 25
19 18 18 19 20 22 23 24 23 24 25 25 26 27 28 28 27 27 27 28 29 29 28 26 25 24 23 22 21 21 23 26 27 26 24 25 26 27 26 25 25 26 26 25 23 23 22 21 20 20 21 23 23 23 23 23 24 25 24 23 22 20 19
21 20 21 22 22 21 21 21 23 25 26 26 25 26 27 27 26 26 27 27 27 26 24 23 22 22 21 20 19 19 19 21 21 21 22 23 23 24 24 23 23 23 23 21 20 20 20 19 20 20 21 21 22 22 23 23 24 25 24 22 21 20 18
22 22 23 24 24 22 21 23 26 28 27 26 25 25 27 27 26 25 25 26 25 23 21 19 19 19 18 17 16 15 14 16 17 18 20 21 20 20 20 21 21 21 20 19 18 18 18 18 19 19 20 21 21 21 22 24 25 25 23 21 20 19 18
22 22 22 23 24 24 23 25 27 27 26 25 25 26 26 25 25 24 24 24 23 20 18 17 16 16 17 16 15 14 12 12 13 14 15 16 15 16 16 17 18 18 19 19 18 17 16 17 18 18 19 20 21 21 21 22 23 23 23 22 21 19 18
21 21 21 21 22 24 25 25 25 25 26 26 25 25 24 24 24 23 23 23 22 19 18 16 15 14 15 15 14 14 14 12 11 11 11 11 11 12 13 15 17 18 18 18 18 18 18 18 18 19 19 19 19 19 19 19 20 21 22 21 21 20 19
19 20 20 20 22 23 24 25 25 25 25 25 24 23 23 23 23 23 22 21 20 18 18 17 15 14 14 14 14 15 15 14 14 13 12 12 12 13 15 17 18 18 18 18 19 20 20 20 20 20 19 19 18 18 18 18 19 20 20 19 18 18 18
21 22 22 23 24 24 23 24 24 24 24 24 23 22 22 23 23 22 21 20 19 18 18 17 15 15 14 14 15 15 14 15 15 15 14 14 15 16 17 18 18 18 19 20 21 20 21 21 21 21 20 18 18 18 18 18 18 18 18 18 17 16 16
23 24 25 26 26 24 22 22 23 23 24 23 22 21 21 21 21 20 20 19 18 18 18 18 16 16 15 15 15 15 15 15 16 16 16 16 16 17 17 17 17 17 18 19 20 20 20 21 21 21 21 20 18 17 17 17 17 18 18 18 17 16 15
23 25 26 26 25 24 22 23 23 23 23 22 21 20 19 18 18 18 18 18 18 17 18 18 17 17 17 16 16 16 16 16 16 16 16 16 16 16 16 16 16 17 17 18 19 20 20 20 20 21 21 20 18 18 18 17 18 18 18 18 17 16 15
Wind_Direction
269 267 265 263 261 259 257 255 253 251 249 246 246 246 247 247 246 246 246 246 246 245 244 244 246 246 246 244 244 244 242 241 239 238 236 235 233 231 230 227 224 234 248 234 226 227 227 229 229 228 229 228 229 229 229 232 235 235 236 236 236 237 238
274 271 269 266 263 261 259 257 255 253 250 247 247 247 248 248 247 247 247 247 247 246 245 245 246 247 247 245 244 244 243 241 238 236 235 234 232 232 231 226 223 229 241 239 227 221 221 222 223 225 227 227 227 228 226 227 230 231 233 235 237 239 240
279 276 273 269 267 264 261 258 256 254 251 249 248 248 248 248 247 248 247 247 247 248 246 246 246 247 247 245 244 245 243 241 239 235 235 234 232 232 232 228 224 226 233 239 232 223 220 218 218 222 225 226 227 227 225 225 227 229 231 234 236 240 242
287 282 276 272 269 267 264 261 259 256 254 252 250 249 249 249 248 248 248 247 248 248 247 246 247 247 247 244 244 245 243 240 238 236 235 235 234 232 232 230 226 226 230 236 236 227 222 221 221 223 223 222 222 222 223 224 225 227 231 234 238 241 242
297 291 284 278 274 272 269 266 264 260 257 255 253 252 251 251 250 249 249 249 249 249 247 247 247 248 246 243 242 243 242 239 238 236 235 235 234 233 232 231 229 227 228 232 235 231 224 222 222 222 221 219 216 216 219 222 224 226 230 234 238 241 243
303 300 295 289 283 278 274 272 269 265 262 259 257 255 253 252 251 251 251 251 251 250 249 248 249 249 246 242 242 242 241 240 238 236 235 235 234 233 232 231 230 229 227 229 234 233 224 218 217 216 217 217 215 213 214 217 221 226 229 232 236 240 244
312 307 303 299 294 288 282 278 274 269 266 263 260 257 255 254 252 252 252 252 252 252 251 250 250 249 246 244 243 243 242 240 238 237 236 235 234 232 231 230 230 228 226 228 232 232 227 219 216 215 215 215 213 213 215 215 215 222 227 230 235 239 242
320 315 311 306 303 299 293 286 280 275 271 267 264 260 258 256 254 253 253 253 253 253 252 252 251 249 248 246 245 245 243 241 238 237 236 236 233 230 230 229 228 226 225 226 229 230 227 221 217 215 214 211 206 208 215 215 213 221 228 230 235 239 241
322 320 317 314 311 309 305 297 290 284 279 274 270 265 262 259 257 255 254 254 254 254 253 252 252 251 250 249 248 247 245 243 241 238 237 236 231 228 228 227 226 225 224 224 227 229 226 220 219 216 208 203 204 206 212 213 215 225 230 231 237 242 242
325 323 320 318 316 314 311 307 301 296 289 283 277 272 267 264 260 257 256 255 255 255 254 253 252 252 252 251 251 249 247 245 243 240 240 238 233 228 226 224 224 224 223 221 224 226 221 217 223 220 210 208 210 210 212 211 214 224 230 231 238 247 247
332 328 324 320 317 315 313 312 310 306 300 292 283 276 271 266 263 260 258 256 255 255 256 255 254 254 253 252 251 250 248 246 244 242 241 240 238 234 230 226 224 223 222 220 224 227 221 219 226 223 215 215 214 210 211 213 214 221 224 222 227 244 250
335 330 326 322 318 316 314 313 312 310 304 296 287 279 273 269 265 262 260 258 257 257 257 257 256 256 254 252 251 250 248 247 245 244 242 241 239 238 236 233 229 227 224 221 223 226 224 224 227 225 219 216 213 210 214 218 219 220 220 218 222 231 237
333 330 328 325 321 317 314 313 312 309 304 297 291 286 280 275 269 264 262 260 259 258 258 258 257 257 256 254 252 250 248 247 245 244 243 242 240 240 239 237 235 233 231 228 225 226 228 228 226 224 223 218 213 212 214 216 219 221 221 220 225 230 232
331 329 327 325 322 318 315 314 312 309 304 299 296 291 286 282 278 272 267 263 260 259 258 258 257 256 257 256 253 250 247 246 244 243 242 240 240 240 239 239 237 235 234 233 230 231 234 234 230 227 227 223 218 218 218 217 219 222 223 226 230 235 237
327 325 324 323 322 319 316 315 314 311 308 304 300 296 292 289 284 280 276 271 267 262 260 259 257 256 257 256 254 251 248 245 243 242 241 239 239 239 239 239 238 236 234 233 233 234 237 238 235 232 230 227 224 225 227 227 228 229 229 232 235 237 237
323 322 322 322 321 319 316 316 316 315 312 309 305 301 298 293 289 284 280 277 274 270 266 262 258 255 255 255 254 252 249 246 242 239 239 239 239 240 240 240 240 238 236 235 234 236 238 238 238 234 232 230 228 229 231 231 233 233 228 225 229 230 229
321 321 321 320 320 317 314 315 318 317 315 313 310 306 302 298 292 287 283 280 278 276 273 268 262 257 255 254 254 252 249 246 241 237 237 238 238 239 240 242 242 240 239 237 235 236 237 237 236 234 232 230 228 231 230 225 225 226 217 214 222 226 223
318 318 319 319 318 316 315 314 317 319 317 316 313 310 306 302 296 291 287 285 282 279 276 274 269 263 258 255 255 253 250 245 239 235 235 236 237 237 239 242 241 238 238 237 234 235 236 236 235 234 232 228 225 227 227 223 223 222 213 214 225 228 225
316 316 318 318 317 316 316 315 316 319 319 318 316 313 309 306 301 296 292 290 288 284 281 279 276 270 263 259 258 254 250 245 239 234 235 236 235 235 239 241 238 234 235 234 231 232 232 232 233 233 233 231 227 225 225 226 228 224 216 219 226 226 225
314 314 315 317 316 315 315 315 317 318 319 317 316 314 312 308 303 299 298 296 293 290 287 285 282 278 270 264 261 256 251 246 240 236 237 235 232 234 240 241 237 234 233 231 229 231 231 231 232 231 231 232 230 226 225 226 228 226 222 222 225 223 223
314 313 313 314 314 313 313 315 317 318 319 318 316 313 311 308 303 301 301 299 295 291 289 288 286 283 279 272 266 259 253 246 239 237 238 236 234 238 242 241 236 234 233 230 229 230 230 230 231 231 230 230 228 226 226 226 227 228 227 226 225 222 223
314 313 312 312 312 311 312 314 316 317 319 319 316 313 310 306 302 301 301 299 296 294 292 291 290 288 284 278 271 263 256 248 241 238 238 238 239 242 243 240 236 232 228 226 226 226 226 228 228 228 229 229 227 226 225 226 228 229 229 230 230 227 226
314 313 311 310 311 312 313 314 316 317 319 321 319 314 310 306 303 301 300 298 296 296 297 296 295 293 291 285 274 265 259 253 246 241 239 239 241 242 240 236 233 229 223 222 222 222 224 226 226 226 228 228 228 228 226 227 229 230 230 231 233 233 233
313 312 310 309 309 310 313 315 316 317 319 323 324 319 314 309 306 304 302 299 296 297 298 297 295 293 292 290 281 269 262 258 252 246 242 240 239 239 237 232 227 225 222 220 220 220 223 226 226 226 228 229 230 231 230 229 231 233 232 232 233 235 237
310 310 308 306 306 308 312 314 316 317 319 323 325 324 319 315 312 310 308 303 299 299 299 298 297 295 292 292 288 275 263 257 253 250 247 243 237 234 231 226 223 221 219 219 221 222 224 228 228 228 231 233 232 232 231 229 230 233 234 233 232 233 235
307 308 306 304 304 307 311 313 314 315 317 321 324 324 320 317 314 313 311 308 304 302 302 301 302 300 296 293 289 277 261 253 251 250 248 244 238 230 225 221 218 216 216 219 222 223 225 229 230 230 231 231 229 227 226 225 226 228 231 231 231 232 233
305 306 306 305 306 308 309 310 312 312 314 318 321 321 320 317 314 312 311 310 307 305 304 303 304 304 300 293 287 277 262 253 250 248 245 242 236 229 223 219 217 217 218 221 223 225 227 229 228 226 225 223 222 223 223 222 222 225 228 230 230 233 236
303 303 304 306 308 308 307 307 309 312 313 315 317 318 317 316 314 313 311 310 308 305 302 302 304 305 303 295 286 275 260 249 246 243 241 238 233 229 225 221 219 220 222 224 225 225 226 225 221 218 218 218 218 220 221 221 222 224 228 229 226 227 232
299 300 304 306 306 306 306 307 310 313 313 311 311 312 313 311 309 309 308 308 307 304 301 301 303 304 302 294 283 270 253 241 237 236 234 233 229 226 224 221 218 217 219 221 221 219 217 216 215 215 216 216 218 220 221 221 222 223 226 226 223 225 228
297 298 302 303 302 302 302 303 307 310 310 308 307 308 309 308 306 306 306 307 307 303 298 298 298 297 294 288 280 271 253 235 228 226 226 226 223 218 215 214 212 211 212 214 215 213 212 212 212 214 215 215 217 221 222 221 222 222 223 221 220 224 228
299 298 300 301 300 301 302 303 305 308 308 307 306 307 308 308 306 305 306 308 308 303 296 293 293 290 287 282 277 275 266 248 235 228 225 224 220 216 213 211 212 213 216 219 222 222 220 218 216 217 218 218 219 221 221 220 220 220 220 220 221 224 227
303 301 302 302 301 302 305 306 306 308 308 307 306 306 308 310 308 306 305 307 306 299 291 288 287 284 282 278 272 271 270 267 260 252 245 239 233 230 228 226 226 228 229 230 232 234 234 232 229 227 226 225 223 222 220 219 218 217 218 221 223 226 228
306 305 305 304 304 304 305 306 308 309 310 310 309 307 309 311 311 308 305 304 301 294 287 285 282 279 279 276 271 269 270 270 270 268 265 259 254 251 249 248 246 245 243 242 242 243 244 244 243 240 237 234 230 226 223 221 219 219 220 222 225 228 229
312 311 310 310 310 309 308 309 311 312 312 313 312 309 310 312 313 311 308 305 300 295 289 284 279 276 277 276 274 273 273 272 272 272 270 266 262 260 259 258 255 250 247 245 245 244 244 245 245 243 241 238 234 231 228 227 225 223 222 224 227 229 231
311 313 315 315 315 313 311 311 313 313 314 315 313 310 311 314 315 315 313 309 304 297 291 286 280 277 276 276 276 276 276 274 274 273 270 268 266 263 260 257 252 246 243 241 239 238 238 239 239 238 237 236 234 231 228 228 227 226 226 227 228 229 230
307 311 314 315 315 315 315 316 316 315 314 314 312 311 311 311 310 310 310 308 304 300 294 289 284 280 279 278 277 277 276 275 274 273 271 268 266 262 258 254 249 245 242 237 234 235 235 234 234 234 233 233 233 231 230 229 229 228 229 229 229 229 229
Height
749 749 749 749 749 749 749 749 749 750 751 751 751 752 753 753 754 754 753 754 755 756 757 757 756 756 757 760 760 759 760 761 762 763 763 764 765 765 765 767 768 767 764 765 766 767 769 770 772 773 774 776 778 780 783 784 785 787 787 788 788 789 790
746 746 746 746 745 745 746 746 746 747 747 747 747 748 749 749 750 749 749 750 750 751 753 753 752 751 753 756 755 754 755 756 757 758 758 759 759 759 760 761 763 763 762 762 763 764 765 766 768 769 770 772 773 775 778 779 780 782 783 784 785 786 786
744 744 743 743 742 742 742 742 743 743 743 743 744 744 744 745 746 745 745 746 745 747 748 748 747 747 749 751 750 749 751 752 752 753 753 753 754 754 755 756 758 759 758 758 760 761 761 762 763 764 766 768 770 772 774 774 776 778 779 780 781 782 782
742 742 741 740 740 739 739 739 739 740 739 739 740 740 740 741 741 741 741 741 741 742 743 743 742 742 744 747 745 744 746 747 748 748 749 749 749 750 751 752 753 753 754 755 756 757 757 758 759 760 762 765 767 769 770 771 772 774 776 777 778 778 778
739 739 738 738 737 737 737 736 736 736 735 736 736 736 737 737 737 737 737 737 737 737 738 738 737 737 740 741 740 739 741 742 743 744 744 744 745 746 748 749 749 749 751 752 752 752 753 755 756 757 758 760 762 764 766 767 769 770 772 773 774 774 774
737 737 736 735 735 735 734 734 734 733 732 733 733 733 733 733 733 733 732 732 732 733 733 733 732 733 734 735 734 734 735 737 738 739 739 739 741 743 744 745 745 746 747 748 747 748 750 751 752 753 754 755 757 759 761 763 765 766 767 769 770 770 771
734 734 733 733 733 732 732 732 731 730 730 730 730 730 729 729 729 728 728 728 727 727 727 727 727 727 729 729 729 728 730 732 733 734 734 735 737 739 741 741 741 742 744 743 744 745 746 746 748 749 750 751 754 756 757 758 760 761 762 763 765 765 766
732 731 731 730 730 729 729 729 728 728 728 727 727 727 726 725 725 724 723 723 722 722 722 721 722 722 722 723 723 724 725 727 728 729 729 730 733 735 736 736 737 739 740 740 741 741 741 743 744 745 746 748 751 752 751 753 755 756 757 759 760 760 761
730 729 728 727 727 726 726 726 726 726 726 725 724 724 722 722 721 720 719 718 717 717 716 716 716 716 717 717 718 718 720 721 723 724 724 725 728 730 731 732 733 734 735 736 737 737 738 741 740 740 741 742 743 744 746 749 752 752 753 756 756 756 757
729 727 726 725 724 724 724 723 723 723 723 722 721 720 719 718 717 716 715 714 713 712 711 711 711 711 712 712 713 713 715 716 718 719 719 721 723 724 725 727 728 729 730 731 732 731 734 736 734 734 736 736 737 740 743 746 748 749 751 753 753 752 752
727 726 725 723 722 722 721 721 721 721 720 719 719 718 716 714 713 712 711 710 708 707 707 707 707 707 707 708 708 709 710 711 712 713 714 716 718 719 719 721 722 723 724 726 726 726 729 729 727 728 732 734 735 739 741 742 744 745 747 749 749 748 747
726 725 724 722 721 720 719 719 719 718 717 717 716 715 713 711 709 708 706 705 704 703 703 703 703 702 702 702 702 704 705 706 707 708 710 711 713 714 714 714 715 716 718 720 721 722 722 721 722 725 728 729 731 735 737 738 740 741 742 743 744 743 743
725 724 723 721 720 718 717 717 717 716 715 714 713 712 710 708 706 703 702 701 700 699 699 699 699 698 697 697 698 699 700 701 702 704 705 707 708 709 709 709 710 711 712 714 715 715 714 715 718 721 722 724 728 731 732 734 735 736 737 738 737 737 739
724 723 722 720 718 717 716 715 715 714 713 711 710 709 707 705 702 700 698 696 695 695 695 694 695 694 692 693 694 694 695 697 698 700 701 702 703 702 703 705 705 706 708 709 710 709 709 711 714 716 717 721 724 726 727 728 729 731 732 732 732 733 736
724 722 721 719 717 715 714 713 712 711 710 708 707 705 704 701 699 696 694 693 692 691 690 690 690 689 688 688 689 689 690 692 694 696 697 697 697 697 698 699 699 700 702 704 705 705 706 708 710 712 714 717 720 722 723 724 725 727 728 729 730 732 734
723 721 719 718 716 714 712 711 710 709 707 706 704 702 700 698 696 693 691 689 689 688 686 685 685 684 683 683 684 685 686 688 690 691 692 691 691 692 693 692 693 695 698 699 701 702 703 706 707 709 711 713 715 718 720 723 724 724 726 728 728 729 729
722 720 718 716 715 713 710 709 708 707 705 703 702 700 698 695 693 690 688 686 685 685 683 681 681 680 679 679 679 680 682 684 685 686 686 686 687 688 688 686 688 692 694 695 698 699 701 703 704 706 708 709 711 713 716 719 719 720 723 724 724 724 725
720 719 717 715 713 711 709 707 706 705 703 701 700 698 695 693 690 687 685 683 682 681 679 678 677 677 676 675 675 676 678 679 680 680 681 681 682 683 682 681 684 688 690 691 694 696 698 700 701 703 704 706 707 709 711 712 713 715 718 719 718 719 721
719 717 715 714 711 710 708 705 704 703 701 700 698 696 694 691 688 685 683 681 679 677 676 675 673 673 673 671 671 672 673 674 675 675 675 676 678 677 674 676 681 684 684 686 688 690 692 695 696 698 700 701 703 705 706 706 707 710 712 712 713 716 718
717 715 713 712 710 708 706 704 702 701 699 698 696 694 692 690 687 684 681 679 677 674 673 672 671 670 669 669 668 669 669 669 670 670 671 672 672 670 669 672 677 678 679 681 682 684 686 689 691 693 695 696 698 700 701 702 703 705 707 707 709 711 712
715 713 710 709 707 705 704 702 700 698 697 696 694 692 691 688 686 683 680 677 675 673 671 669 668 667 666 666 666 665 665 665 665 665 666 666 666 664 666 670 672 673 675 677 678 680 683 684 686 689 690 691 692 694 696 698 699 700 701 702 702 704 706
712 710 708 706 704 703 701 700 698 696 695 693 691 690 688 686 684 682 679 675 672 670 669 667 665 664 663 663 662 662 661 661 661 661 661 660 661 662 665 667 668 670 671 673 674 677 679 680 682 683 684 686 688 689 691 693 694 695 696 696 697 698 700
710 708 705 703 701 700 698 697 696 694 692 691 689 687 685 683 681 680 678 674 671 668 667 665 663 662 661 660 659 658 658 658 658 657 656 656 658 659 661 664 665 667 668 669 671 673 674 675 677 679 680 682 683 685 687 688 689 690 692 693 694 695 696
707 706 703 701 698 697 695 694 693 691 690 688 686 684 682 680 679 677 675 672 669 667 665 663 661 660 658 657 655 654 654 654 654 653 653 653 654 656 658 660 662 663 665 667 668 669 670 671 673 674 676 677 678 681 683 684 686 687 688 690 691 692 694
706 704 702 699 696 694 692 691 689 688 686 685 683 681 679 677 676 674 672 670 667 665 663 661 658 657 655 653 652 651 650 650 650 650 650 651 652 653 654 656 657 659 662 663 664 665 666 667 669 670 672 673 675 677 679 680 682 684 685 687 688 689 691
703 702 699 697 694 692 690 688 687 685 683 682 680 678 676 674 672 671 669 667 664 662 660 657 655 653 651 650 649 648 647 646 646 646 646 647 649 650 650 651 653 656 657 658 660 661 662 663 665 667 668 670 672 673 675 677 679 680 682 683 684 686 687
701 699 697 694 692 690 687 686 684 683 681 679 677 675 673 671 669 667 666 663 661 659 656 654 653 651 649 647 646 645 644 643 643 643 643 644 646 647 647 648 649 651 653 654 656 657 658 660 662 664 666 667 669 670 671 673 675 676 678 679 681 682 682
698 697 695 693 690 688 685 683 682 681 679 677 675 673 671 668 666 664 663 660 658 656 654 652 650 648 646 644 642 641 640 640 640 640 641 641 642 643 644 645 647 648 650 651 652 654 656 658 660 661 662 664 665 666 668 670 672 673 674 676 678 678 678
696 695 693 691 689 687 683 680 678 678 677 675 674 672 670 667 665 663 661 659 656 654 652 650 648 646 644 643 641 639 638 637 637 638 638 639 639 640 641 643 644 646 647 648 650 651 653 655 656 658 659 661 662 663 665 667 668 669 670 673 674 674 674
695 693 691 689 687 686 683 680 677 676 675 673 672 670 668 666 664 661 659 657 655 653 650 648 646 645 643 642 640 638 637 636 635 636 636 637 637 638 639 641 642 643 645 646 648 649 650 652 653 655 656 658 659 660 661 663 664 665 667 668 669 670 671
692 691 689 687 685 683 682 679 677 675 673 671 669 668 665 663 661 659 657 655 653 651 648 647 645 644 643 641 640 638 637 636 635 635 635 636 636 637 638 639 641 642 643 645 646 647 648 650 651 652 653 654 656 657 658 659 660 662 663 664 665 666 667
689 687 686 685 683 681 679 677 675 673 671 669 667 665 663 661 659 657 655 654 652 649 647 645 644 643 642 641 640 638 638 637 636 636 636 636 637 637 638 639 640 641 642 643 644 645 646 647 648 649 651 652 653 654 655 656 657 658 659 660 661 662 663
686 685 683 682 681 679 677 674 672 670 668 666 664 662 660 659 656 654 653 652 650 647 645 644 643 642 641 640 639 638 638 637 637 637 637 637 637 637 637 638 639 640 641 642 642 643 644 644 646 647 648 649 650 651 652 653 654 655 656 657 658 658 659
683 682 681 679 678 676 674 672 670 668 666 664 662 660 658 656 654 652 651 650 648 646 644 642 641 640 639 639 638 638 637 637 636 636 636 636 636 637 637 638 638 639 639 640 640 641 642 642 643 644 645 646 647 648 649 650 651 652 653 653 654 655 657
679 679 678 676 674 673 671 670 667 665 663 662 660 658 656 655 652 650 649 648 646 645 643 642 640 639 638 638 637 637 636 636 636 636 635 635 636 636 636 636 636 637 637 637 638 639 639 640 641 642 642 643 644 645 646 647 648 649 649 650 651 653 654
677 675 674 673 672 670 669 667 665 663 661 659 658 656 655 653 651 649 648 646 645 643 642 640 639 638 637 636 636 635 635 635 634 634 634 634 634 634 634 634 634 634 634 635 635 636 637 637 638 639 640 641 641 642 643 644 645 646 646 647 649 650 651